Weather History for Lima, OH

Change the Weather History Date:

Thursday, June 27, 2013

  Actual Average (KFDY) Record (KFDY)
Temperature  
Mean Temperature 78 °F -  
Max Temperature 84 °F 81 °F 95 °F (1971)
Min Temperature 71 °F 61 °F 48 °F (1961)
Cooling Degree Days 12    
Growing Degree Days 28 (Base 50)    
Moisture  
Dew Point 68 °F    
Average Humidity 77    
Maximum Humidity 90    
Minimum Humidity 57    
Precipitation  
Precipitation 0.09 in - - ()
Sea Level Pressure  
Sea Level Pressure 29.74 in    
Wind  
Wind Speed 5 mph (West)    
Max Wind Speed 14 mph    
Max Gust Speed 22 mph    
Visibility 8 miles    
Events Rain    
Averages and records for this station are not official NWS values.
T = Trace of Precipitation, MM = Missing Value Source: NWS Daily Summary

Daily Weather History Graph

Daily Weather History Graph

Search for Another Location

Airport:

Trip Planner

Search our weather history database for the weather conditions in past years. The results will help you decide how hot, cold, wet, or windy it might be!

Date:

Astronomy

Jun. 27, 2013 Rise Set
Actual Time 6:07 AM EDT 9:11 PM EDT
Civil Twilight 5:33 AM EDT 9:44 PM EDT
Nautical Twilight 4:51 AM EDT 10:27 PM EDT
Astronomical Twilight 4:01 AM EDT 11:17 PM EDT
Moon No Moon Rise 11:07 AM EDT (6/27)
Length of Visible Light 16h 11m
Length of Day
15h 04m
Waning Gibbous, 76% of the Moon is Illuminated
Jun 27
Waning Gibbous
Jun 30
Last Quarter
Jul 8
New
Jul 15
First Quarter
Jul 22
Full

Hourly Weather History & Observations

Time (EDT) Temp. Heat Index Dew Point Humidity Pressure Visibility Wind Dir Wind Speed Gust Speed Precip Events Conditions
12:00 AM 73.4 °F - 68.0 °F 83% 29.80 in 10.0 mi Calm Calm - N/A   Overcast
12:53 AM 73.0 °F - 68.0 °F 84% 29.77 in 9.0 mi South 3.5 mph - N/A   Overcast
1:38 AM 73.4 °F - 68.0 °F 83% 29.76 in 7.0 mi SSE 4.6 mph - N/A   Overcast
1:53 AM 73.0 °F - 68.0 °F 84% 29.75 in 6.0 mi South 4.6 mph - N/A   Haze
2:00 AM 73.4 °F - 68.0 °F 83% 29.77 in 6.0 mi South 4.6 mph - N/A   Haze
2:18 AM 71.6 °F - 68.0 °F 88% 29.76 in 7.0 mi South 3.5 mph - N/A   Overcast
2:40 AM 71.6 °F - 68.0 °F 88% 29.77 in 6.0 mi SSW 4.6 mph - N/A   Overcast
2:53 AM 72.0 °F - 68.0 °F 87% 29.75 in 6.0 mi South 3.5 mph - N/A   Overcast
3:33 AM 71.6 °F - 68.0 °F 88% 29.75 in 5.0 mi SSE 5.8 mph - 0.00 in   Overcast
3:53 AM 72.0 °F - 68.0 °F 87% 29.73 in 5.0 mi SSW 3.5 mph - 0.00 in   Overcast
4:53 AM 72.0 °F - 68.0 °F 87% 29.73 in 6.0 mi SSW 3.5 mph - 0.01 in   Overcast
5:53 AM 71.1 °F - 66.9 °F 87% 29.73 in 6.0 mi SW 4.6 mph - N/A   Overcast
6:10 AM 71.6 °F - 66.2 °F 83% 29.75 in 6.0 mi SW 3.5 mph - N/A   Haze
6:53 AM 71.1 °F - 68.0 °F 90% 29.73 in 4.0 mi SW 5.8 mph - 0.00 in Rain Light Rain
7:53 AM 71.1 °F - 68.0 °F 90% 29.76 in 4.0 mi West 4.6 mph - 0.00 in   Overcast
8:53 AM 73.0 °F - 69.1 °F 87% 29.74 in 5.0 mi WNW 6.9 mph - N/A   Overcast
9:05 AM 73.4 °F - 68.0 °F 83% 29.76 in 6.0 mi WNW 6.9 mph - N/A   Haze
9:33 AM 73.4 °F - 68.0 °F 83% 29.76 in 6.0 mi NW 9.2 mph - N/A   Haze
9:53 AM 73.9 °F - 68.0 °F 82% 29.74 in 7.0 mi NW 9.2 mph - N/A   Overcast
10:02 AM 75.2 °F - 68.0 °F 78% 29.76 in 8.0 mi North 5.8 mph - N/A   Mostly Cloudy
10:15 AM 75.2 °F - 68.0 °F 78% 29.76 in 10.0 mi Variable 6.9 mph - N/A   Scattered Clouds
10:27 AM 75.2 °F - 68.0 °F 78% 29.75 in 10.0 mi NNW 8.1 mph - N/A   Mostly Cloudy
10:41 AM 78.8 °F - 68.0 °F 69% 29.76 in 10.0 mi NNW 9.2 mph - N/A   Mostly Cloudy
10:53 AM 78.1 °F - 68.0 °F 71% 29.73 in 10.0 mi NW 9.2 mph - N/A   Scattered Clouds
11:53 AM 79.0 °F - 68.0 °F 69% 29.74 in 10.0 mi NW 8.1 mph - N/A   Mostly Cloudy
12:53 PM 80.1 °F 82.7 °F 68.0 °F 67% 29.74 in 10.0 mi NW 9.2 mph - N/A   Mostly Cloudy
1:53 PM 82.0 °F 85.5 °F 69.1 °F 65% 29.73 in 10.0 mi WNW 6.9 mph - N/A   Mostly Cloudy
2:53 PM 84.0 °F 87.0 °F 68.0 °F 58% 29.73 in 10.0 mi NW 8.1 mph - N/A   Scattered Clouds
3:53 PM 84.0 °F 87.0 °F 68.0 °F 58% 29.72 in 10.0 mi West 11.5 mph - N/A   Overcast
4:53 PM 84.9 °F 88.2 °F 68.0 °F 57% 29.70 in 10.0 mi West 13.8 mph 21.9 mph N/A   Scattered Clouds
5:53 PM 84.0 °F 87.0 °F 68.0 °F 58% 29.70 in 10.0 mi WNW 12.7 mph - N/A   Mostly Cloudy
6:53 PM 78.1 °F - 69.1 °F 74% 29.70 in 2.0 mi WNW 13.8 mph - 0.07 in Rain Heavy Rain
7:06 PM 78.8 °F - 69.8 °F 74% 29.72 in 10.0 mi WNW 8.1 mph - 0.00 in   Mostly Cloudy
7:53 PM 81.0 °F 83.8 °F 68.0 °F 65% 29.69 in 10.0 mi West 10.4 mph - 0.00 in   Clear
8:53 PM 80.1 °F 82.7 °F 68.0 °F 67% 29.69 in 10.0 mi WNW 10.4 mph - N/A   Clear
9:53 PM 78.1 °F - 68.0 °F 71% 29.68 in 10.0 mi NW 5.8 mph - N/A   Scattered Clouds
10:53 PM 75.0 °F - 68.0 °F 79% 29.68 in 10.0 mi NNE 4.6 mph - 0.01 in   Scattered Clouds
11:53 PM 73.0 °F - 66.9 °F 81% 29.66 in 10.0 mi SSE 4.6 mph - N/A   Partly Cloudy